Regional Weather Roundup
Issued by NWS Pendleton, OR

Home | Current Version | Previous Version | Text Only | Print | Product List | Glossary On
Versions: 1 2 3 4 5 6 7 8 9 10 11 12 13 14 15 16 17 18 19 20 21 22 23 24 25 26 27 28 29 30 31 32 33 34 35 36 37 38 39 40 41 42 43 44 45 46 47 48 49 50
000
ASUS46 KPDT 050325
RWRPDT
PENDLETON REGIONAL WEATHER ROUNDUP
NATIONAL WEATHER SERVICE PENDLETON OREGON
800 PM PDT TUE AUG 4 2015

NOTE: FAIR INDICATES FEW OR NO CLOUDS BELOW 12,000 FEET WITH NO
SIGNIFICANT WEATHER AND/OR OBSTRUCTIONS TO VISIBILITY.

# INDICATES UNOFFICIAL STATION AND DATA

WAZ520-050410-
EAST SLOPES OF WASHINGTON CASCADES

CITY            SKY/WX      TMP DP  RH  WIND    PRES   REMARKS
#BUMPING DAM    N/A         65  N/A N/A CALM    N/A
#CLE ELUM HS    N/A         69  42  37  W6      29.88S
#CLE ELUM LAKE  N/A         65  39  38  SW1     29.82S
#CLIFFDEL 2NW   N/A         67  41  39  N6G25   N/A
#MANASTASH CYN  N/A         68  37  32  CALM    29.92R
#NELSON         N/A         69  44  40  CALM    29.85S
#NELSON 3SW     N/A         65  45  48  CALM    30.03S
#RONALD 2NW     N/A         69  41  36  NE1     29.86S
#SNOWDEN        N/A         67  25  20  NW3     N/A
#TEANAWAY 4NE   N/A         70  45  41  W3      N/A
#TROUT LAKE 1NE N/A         71  41  34  W8      29.82S
$$

WAZ521-050410-
SIMCOE HIGHLANDS

CITY            SKY/WX      TMP DP  RH  WIND    PRES   REMARKS
#BICKLETON HS   N/A         76  22  13  W7      N/A
#CENTERVILLE 4W N/A         74  42  32  CALM    29.66S
#CENTERVILLE 1SWN/A         72  43  35  W18     29.77R
#GOLDENDALE     N/A         80  39  23  W15     N/A
#GOLDENDALE 1NE N/A         76  25  15  SW5     N/A
#GOLDENDALE 5WNWN/A         75  44  33  SW9     29.79R
#GOODNOE HILLS  N/A         77  40  26  W22     N/A
#LYLE 6NE       N/A         73  44  35  SW13    29.80R
$$

WAZ026-050410-
KITTITAS VALLEY

CITY            SKY/WX      TMP DP  RH  WIND    PRES   REMARKS
ELLENSBURG AP   PTCLDY      73  41  31  NW26G35 29.88R
YTC-OPS AREA    N/A         67  34  29  W39G47  29.86F
#ELLENSBURG CWU N/A         71  42  35  NW15    29.75R
#ELLENSBURG 3NE N/A         71  43  36  N10     29.88R
#ELLENSBURG 1E  N/A         71  37  29  NW1     N/A
#KITTITAS 3S    N/A         71  45  39  NW14    29.77R
#THORP 6N       N/A         68  42  39  W26G35  29.82R
$$

WAZ027-050410-
YAKIMA VALLEY

CITY            SKY/WX      TMP DP  RH  WIND    PRES   REMARKS
SUNNYSIDE AP    CLEAR       77  39  25  NW9     29.78R
YAKIMA AIRPORT  CLEAR       82  42  24  N14G25  29.83R
#DONALD 2NE     N/A         80  12   7  SW3     28.67R
#GRANDVIEW      N/A         83  36  19  W3      29.75R
#MABTON         N/A         83  44  25  W5      29.76R
#MOXEE 2E       N/A         77  14   9  NE9     29.76R
#NACHES 2SW     N/A         73  44  35  W14     29.86R
#OUTLOOK DOT    N/A         N/A N/A N/A N6      N/A
#SELAH 8E       N/A         74  34  23  NW9     N/A
#TERRACE HTS    N/A         81  41  24  N8      29.72R
#TOPPENISH      N/A         81  43  26  N3      29.68R
#WAPATO 4NE     N/A         80  12   7  SW3     28.67R
#WEST VALLEY    N/A         78  44  30  NW3     29.75R
#W YAKIMA       N/A         76  43  31  N3      29.77R
#WHITE SWAN 5E  N/A         82  37  20  W8      29.75R
$$

WAZ028-050410-
LOWER COLUMBIA BASIN...WASHINGTON

CITY            SKY/WX      TMP DP  RH  WIND    PRES   REMARKS
PASCO           CLEAR       90  38  16  SW7     29.73S HX 86
RICHLAND AWOS   CLEAR       90  50  26  NW10    29.74R HX 87
#BASIN CITY 5SW N/A         82  41  23  NW8     29.75R
#BENTON CITY    N/A         87  42  21  W2      29.62R
#CONNELL 5N     N/A         86  44  23  NW1     29.71R
#CONNELL 5NW    N/A         75  49  40  W3      29.68R
#ELTOPIA 6NW    N/A         82  54  38  NW5     28.75R
#KAHLOTUS       N/A         87  41  20  NW13    29.70F
#KENNEWICK 3S   N/A         86  39  19  NW2     29.72R
#PASCO-BROADMOORN/A         93  48  22  NW1     29.59R HX 90
#PATERSON       N/A         83  46  27  W12     29.71R
#PROSSER        N/A         89  41  19  N1      29.72R
#SAGEMOOR 2W    N/A         84  57  40  CALM    29.57S
#TOUCHET 2S     N/A         86  43  22  SW8     29.70S
#WEST PASCO     N/A         91  50  25  CALM    29.69S HX 88
$$

WAZ029-050410-
FOOTHILLS OF THE BLUES...WASHINGTON

CITY            SKY/WX      TMP DP  RH  WIND    PRES   REMARKS
WALLA WALLA AP  CLEAR       86  40  20  S8      29.80S
#DAYTON SCHOOL  N/A         83  36  19  SE5     29.82S
#LOWDEN 2SE     N/A         86  46  25  CALM    29.72S
#PLEASANT VIEW 1N/A         83  42  24  SW2     29.75F
#PRESCOTT       N/A         84  43  24  CALM    29.71S
#SUDBURY        N/A         82  N/A N/A CALM    N/A
#WHITMAN COLLEGEN/A         86  45  24  S3      29.78S
#WAITSBURG 8N   N/A         76  22  13  CALM    29.65R
#WALLA WALLA U  N/A         88  47  24  CALM    29.72S
$$

WAZ030-050410-
BLUE MOUNTAINS...WASHINGTON

CITY            SKY/WX      TMP DP  RH  WIND    PRES   REMARKS
$$

ORZ009-041-WAZ024-050410-
COLUMBIA RIVER GORGE

CITY            SKY/WX      TMP DP  RH  WIND    PRES   REMARKS
HOOD RIVER AP   CLEAR       77  41  28  W3      29.90R
THE DALLES AP   CLEAR       81  38  21  W14G24  29.84R
#ARLINGTON AIRPON/A         79  41  26  W15     30.01R
#MOSIER 1S      N/A         75  26  16  N15     29.90R
#MURDOCK        N/A         79  52  39  W10G25  29.85R

$$

ORZ510-050410-
NORTH CENTRAL OREGON

CITY            SKY/WX      TMP DP  RH  WIND    PRES   REMARKS
#CHENOWITH 1W   N/A         72  39  30  W21     N/A
#DUFUR 9E       N/A         72  32  23  W14     29.88R
#GRASS VALLEY 1SN/A         74  30  20  NW15G24 29.84S
#MAUPIN SCHOOL  N/A         79  24  13  W7      29.90R
#MORO SCHOOL    N/A         74  39  28  W9      29.91R
#SHANIKO 4NW    N/A         69  27  21  NW15    30.01R
#TYGH VALLEY 2NEN/A         78  28  16  N2      29.82R
#WAPANITIA AIRPON/A         74  30  20  W9      29.84R
#WASCO AIRPORT  N/A         76  35  22  W15     N/A
#WASCO 5NE      N/A         74  42  32  SW15G26 29.80R
$$

ORZ511-050410-
CENTRAL OREGON

CITY            SKY/WX      TMP DP  RH  WIND    PRES   REMARKS
BEND AIRPORT    PTCLDY      75  41  29  N12     29.98R
MADRAS AIRPORT  CLEAR       75  43  32  N13     29.95R
PRINEVILLE AP   MOCLDY      77  45  32  N10     29.97R
REDMOND AIRPORT CLEAR       77  42  29  NW14    29.96R
#BEND 1SW       N/A         74  46  37  CALM    N/A
#BEND-AWBREY    N/A         75  44  33  N2      29.80R
#BEND-KIM LN    N/A         77  44  31  N1      29.95R
#CULVER         N/A         77  46  33  W6      29.91R
#LAKE BILLY CHINN/A         75  10   8  NW17    29.98R
#POWELL BUTTE 3EN/A         76  47  36  NW9     N/A
#POWELL BUTTE   N/A         73  44  35  N2      29.62R
#PRINEVILLE 3N  N/A         72  48  43  NW12    29.77R
#WARM SPRINGS   N/A         78  42  28  SW15    29.87R

$$


ORZ509-050410-
EAST SLOPES OF OREGON CASCADES

CITY            SKY/WX      TMP DP  RH  WIND    PRES   REMARKS
#CAMP SHERMAN   N/A         72  43  35  CALM    29.86R
#LA PINE 4NW    N/A         72  49  44  N1      29.85S
#SISTERS AIRPOR N/A         73  54  51  N10     30.17S
#SISTERS 1NW    N/A         74  45  35  N8      N/A
#SISTERS 3N     N/A         71  40  32  CALM    30.19R
#SUNRIVER       N/A         72  48  43  SW1     29.70R

$$

ORZ044-050410-
LOWER COLUMBIA BASIN...OREGON

CITY            SKY/WX      TMP DP  RH  WIND    PRES   REMARKS
HERMISTON       CLEAR       85  37  18  SW14    29.77S HAZE
#BOARDMAN SCHOOLN/A         84  45  26  S8      29.76R
#BOARDMAN 8SW   N/A         78  46  32  SW12    29.75R
#ECHO 8SW       N/A         84  36  18  SW7     29.80R
#IONE SCHOOL    N/A         81  33  18  SW8     29.81R
#IRRIGON 4NW    N/A         84  47  28  S13     N/A
#UMATILLA SCHOOLN/A         85  54  35  W3      29.83R
#UMATILLA       N/A         84  43  24  SW8     29.67R
$$

ORZ507-050410-
NORTHERN FOOTHILLS OF THE BLUES

CITY            SKY/WX      TMP DP  RH  WIND    PRES   REMARKS
PENDLETON AIRPT CLEAR       83  33  17  W10     29.83R
#ADAMS 3WNW     N/A         81  37  21  W6      29.75R
#ATHENA         N/A         82  39  22  W1      29.78R
#CAYUSE         N/A         83  41  23  W3      29.74R
#HELIX SCHOOL   N/A         82  38  21  SW1     29.74S
#HELIX 3N       N/A         81  37  21  SW12    29.83R
#HOLDMAN 5SE    N/A         82  37  20  W6      29.83S
#HOLDMAN 6E     N/A         81  36  20  VRB12   29.57R
#M-FREEWATER 5SEN/A         80  51  36  CALM    29.82S
#PENDLETON DNTN N/A         86  40  20  W1      N/A
#PDT AQUATIC CTRN/A         85  38  19  W7      29.83R
#PDT SUNRIDGE   N/A         85  35  17  W3      29.82R
#PENDLETON 7NW  N/A         83  46  27  W8      29.24S
#PILOT ROCK     N/A         79  38  23  CALM    29.88R
#TUTUILLA       N/A         81  36  20  W3      29.78S
#UMAPINE 2E     N/A         77  55  47  S1      29.75R
#WESTON SCHOOL  N/A         81  35  19  W1      29.77R

$$

ORZ508-050410-
SOUTHERN FOOTHILLS OF THE BLUES

CITY            SKY/WX      TMP DP  RH  WIND    PRES   REMARKS
#AJAX           N/A         75  24  15  SW6     29.87R
#CONDON SCHOOL  N/A         74  25  16  NW13    29.90R
#CONDON 5W      N/A         71  21  15  NW13    29.93R
#FOSSIL SCHOOL  N/A         78  31  18  N7      29.89R
#HEPPNER EOC    N/A         78  19  11  W10     29.73R
#LEXINGTON 2SE  N/A         79  30  17  CALM    29.85R
#OLEX 4N        N/A         78  38  24  W20G26  29.83R
#RUGGS 5NE      N/A         73  -20  2  W13     30.14R

$$

ORZ502-503-050410-
BLUE MOUNTAINS

CITY            SKY/WX      TMP DP  RH  WIND    PRES   REMARKS
MEACHAM         CLEAR       72  39  30  CALM    29.98R
#HEPPNER 15SE   N/A         67  26  21  NW1     29.92R
#LONG CREEK HS  N/A         75  43  32  CALM    29.90R
#PIKES PEAK     N/A         75  39  27  SW7     27.99S
#TOLLGATE       N/A         66  40  38  CALM    29.91S
#TROY SCHOOL    N/A         86  45  24  SW3     29.57R
#UKIAH          N/A         74  36  25  W6      29.83R
$$

ORZ505-050410-
JOHN DAY BASIN

CITY            SKY/WX      TMP DP  RH  WIND    PRES   REMARKS
JOHN DAY        CLEAR       78  43  29  SW3     29.94R
#JOHN DAY KJDY  N/A         84  55  37  CALM    29.85F
#DAYVILLE SCHOOLN/A         84  37  19  N7      29.85R
#MITCHELL       N/A         79  46  31  CALM    30.11R
#MONUMENT HS    N/A         82  34  18  NE3     29.86R
#MT. VERNON 5SE N/A         76  43  31  CALM    29.90
$$

ORZ506-050410-
OCHOCO AND JOHN DAY HIGHLANDS

CITY            SKY/WX      TMP DP  RH  WIND    PRES   REMARKS
#PINE MTN OBS   N/A         64  42  45  NW7     N/A
#PRAIRIE CITY   N/A         77  46  33  CALM    29.71R
#SENECA         N/A         75  N/A N/A N1      N/A
#SENECA 9NW     N/A         71  43  36  CALM    29.74R
$$

ORZ049-050410-
GRANDE RONDE VALLEY

CITY            SKY/WX      TMP DP  RH  WIND    PRES   REMARKS
LA GRANDE       CLEAR       79  39  24  NW14    29.90R
#COVE           N/A         78  50  38  CALM    29.92R
#COVE SCHOOL    N/A         78  45  31  CALM    29.92R
#COVE 6NW       N/A         78  45  31  N8      29.80R
#ELGIN 3N       N/A         77  37  24  N3      29.88R
#ELGIN 1E       N/A         82  44  26  CALM    N/A
#IMBLER SCHOOL  N/A         76  44  32  N5      29.85R
#ISLAND CITY 4N N/A         69  52  55  CALM    29.99R
#UNION 1S       N/A         79  46  31  NW1     29.66R
$$

ORZ050-050410-
WALLOWA COUNTY

CITY            SKY/WX      TMP DP  RH  WIND    PRES   REMARKS
JOSEPH AIRPORT  PTCLDY      75  41  29  W3      29.97R
#ENTERPRISE HS  N/A         78  46  32  NW7     29.94R
#IMNAHA SCHOOL  N/A         85  49  29  VRB2    29.80S
#IMNAHA 10S     N/A         74  58  57  CALM    29.86R
#JOSEPH 3N      N/A         72  43  35  W1      29.98R
#JOSEPH 3W      N/A         70  41  35  CALM    29.85R
#LOSTINE        N/A         75  48  38  CALM    29.55R
#MT HOWARD 8000 N/A         59  39  47  N2      30.24S
#PROMISE 1S     N/A         76  45  33  S3      29.83R
#WALLOWA SCHOOL N/A         79  45  30  CALM    29.87R



$$



USA.gov is the U.S. government's official web portal to all federal, state and local government web resources and services.